Regional Weather Roundup
Issued by NWS Upton, NY

Current Version | Previous Version | Graphics & Text | Print | Product List | Glossary Off
Versions: 1 2 3 4 5 6 7 8 9 10 11 12 13 14 15 16 17 18 19 20 21 22 23 24 25 26 27 28 29 30 31 32 33 34 35 36 37 38 39 40 41 42 43 44 45 46 47 48 49

000
ASUS41 KOKX 182005
RWROKX

REGIONAL WEATHER ROUNDUP
NATIONAL WEATHER SERVICE NEW YORK NY
400 PM EDT THU SEP 18 2014

NOTE: "FAIR" INDICATES FEW OR NO CLOUDS BELOW 12,000 FEET WITH NO
SIGNIFICANT WEATHER AND/OR OBSTRUCTIONS TO VISIBILITY.

NYZ071-072-176-178-NJZ106-104-182100-
NEW YORK CITY METRO AREA


CITY           SKY/WX    TMP DP  RH WIND       PRES   REMARKS
CENTRAL PARK   CLOUDY    72  47  40 CALM      30.01R
LAGUARDIA APRT PTSUNNY   73  47  39 N7        29.98S
KENNEDY INTL   PTSUNNY   73  46  38 SW10      29.98S
NEWARK/LIBERTY MOSUNNY   75  44  33 W13       29.98S
BRNX BOT. GARD   N/A     73  46  38 NW6       29.99S
TETERBORO      MOSUNNY   74  41  30 NW8       29.97S
$$

NYZ177-179-078>081-182100-
LONG ISLAND NEW YORK

CITY           SKY/WX    TMP DP  RH WIND       PRES   REMARKS
FARMINGDALE    PTSUNNY   75  46  35 VRB6      29.98S
ISLIP          MOSUNNY   73  44  35 N6        29.97S
SHIRLEY        SUNNY     75  45  34 N9        29.99R
WESTHAMPTON    SUNNY     76  42  29 N12       29.99S
MONTAUK POINT    N/A     73  49  42 W6        29.98F
$$

NYZ052-065-067-182100-
HUDSON VALLEY

CITY           SKY/WX    TMP DP  RH WIND       PRES   REMARKS
WHITE PLAINS   MOSUNNY   74  42  31 NW8       29.98S
NEWBURGH       NOT AVBL
MONTGOMERY     PTSUNNY   71  44  37 NW8       29.99R
POUGHKEEPSIE   MOSUNNY   75  45  34 VRB3      29.98S
ALBANY         LGT RAIN  66  53  63 N8        30.01R
$$

NJZ001-105-106-008-010-013-015-019>022-104-182100-
NEW JERSEY

CITY           SKY/WX    TMP DP  RH WIND       PRES   REMARKS
NEWARK/LIBERTY MOSUNNY   75  44  33 W13       29.98S
TETERBORO      MOSUNNY   74  41  30 NW8       29.97S
CALDWELL       MOSUNNY   74  44  34 VRB7      29.99S
MORRISTOWN     PTSUNNY   75  46  35 W8        29.99S
SOMERVILLE     NOT AVBL
LINDEN         FAIR      78  49  36 NW7       30.00S
SUSSEX         MOSUNNY   75  47  36 CALM      30.00S
ANDOVER          N/A     73  46  38 VRB7      30.00F
TRENTON        PTSUNNY   72  49  44 CALM      29.99S
MILLVILLE      CLOUDY    72  53  51 NW6       30.01R
ATLANTIC CITY  CLOUDY    72  51  47 NW6       30.01R
WRIGHTSTOWN    PTSUNNY   73  51  45 VRB3      29.97S
TOMS RIVER     MOSUNNY   73  48  40 CALM      30.00S
BELMAR         MOSUNNY   73  48  40 W6        30.00R
$$

PAZ047>061-062-071-182100-
EASTERN PENNSYLVANIA

CITY           SKY/WX    TMP DP  RH WIND       PRES   REMARKS
PHILADELPHIA   PTSUNNY   70  57  63 W10       30.02R
ALLENTOWN      MOSUNNY   75  45  34 NW8       30.00R
SCRANTON       MOSUNNY   72  41  32 NW10G23   30.02S
$$

CTZ002-004>006-009-010-012-RIZ004-006-007-MAZ004-011-015-182100-
SOUTHERN NEW ENGLAND
 IN CT

CITY           SKY/WX    TMP DP  RH WIND       PRES   REMARKS
BRADLEY INTL   MOSUNNY   76  45  33 W10       29.97R
HARTFORD       PTSUNNY   73  43  33 SW8       29.97S
DANBURY        MOSUNNY   70  44  39 VRB3      30.00S
WTRBRY/OXFORD  MOSUNNY   70  43  37 N9        30.01R
BRIDGEPORT     PTSUNNY   74  49  41 N9        29.98S
MERIDEN        SUNNY     74  44  34 NW6       29.98R
NEW HAVEN      SUNNY     75  43  31 VRB3      29.98R
CHESTER        FAIR      72  46  40 NW7       29.99S
GROTON         SUNNY     73  46  38 NW10G17   29.96S
WILLIMANTIC    PTSUNNY   73  46  38 NW10      29.98R

 IN RI

CITY           SKY/WX    TMP DP  RH WIND       PRES   REMARKS
PROVIDENCE     MOSUNNY   75  46  35 N14       29.96R
BLOCK ISLAND   SUNNY     72  48  43 W10       29.97S
WESTERLY       MOSUNNY   74  45  35 VRB6      29.97S

 IN MA

CITY           SKY/WX    TMP DP  RH WIND       PRES   REMARKS
BOSTON         PTSUNNY   71  48  43 SE7       29.95S
WORCESTER      MOSUNNY   67  48  50 W8        29.99R
WESTFIELD      CLOUDY    73  49  42 NE7       29.98R
PROVINCETOWN   SUNNY     68  52  56 N5        29.97R
NANTUCKET      SUNNY     71  46  40 NW10      29.96R
$$

ANZ330-335-338-340-345-350-353-355-182100-
COASTAL MARINE OBSERVATIONS


STATION/POSITION TIME  SKY/WX   TEMP    WIND        PRES    VSBY  WAVE
                                AIR SEA DIR/SP/G                  HT/PER
                 (UTC)          (F)     (DEG/KT/KT) (MB)    (MI)  (FT/S)
NY HARB ENTRANCE 2000            71 71  280/  2/  4 1015.7          3/13
4S FIRE IS       2000               71                N/A           3/12
23SW MTP         2000                                 N/A           3/12
HUDSON CANYON    2000            68 74  340/ 10/ 12 1015.5          4/11
EXECUTION ROCKS  2000            73 72  110/  2/  4   N/A
WESTERN LI SOUND 2000            71      90/  4/  6   N/A           0
CENTRAL LI SOUND 1900            69 72  230/  8/ 10   N/A           0
EASTERN LI SOUND 1900            71 69  350/  6/  8   N/A
ROBBINS REEF     2000            71     190/  2/  3 1014.1
$$


>>>>>>>>>>>>>>>>>>>>>>>>>>>> KEY <<<<<<<<<<<<<<<<<<<<<<<<<<<
>                                                          <
>     SKY/WX - SKY CONDITION/PRESENT WEATHER               <
>     TMP    - TEMPERATURE IN FAHRENHEIT                   <
>     DP     - DEWPOINT IN FAHRENHEIT                      <
>     RH     - RELATIVE HUMIDITY IN PERCENT                <
>     WIND   - DIRECTION AND SPEED IN MPH                  <
>     PRES   - MEAN SEA LEVEL PRESSURE IN INCHES OF HG     <
>     WCI    - WIND CHILL INDEX                            <
>     VSB    - VISIBILITY IN MILES                         <
>     HX     - HEAT INDEX                                  <
>     TC     - TEMPERATURE IN CELSIUS                      <
>     VRB    - VARIABLE WIND DIRECTION                     <
>                                                          <
>>>>>>>>>>>>>>>>>>>>>>>>>>>> KEY <<<<<<<<<<<<<<<<<<<<<<<<<<<





USA.gov is the U.S. government's official web portal to all federal, state and local government web resources and services.